リニア彗星

256P/LINEAR (2003)

English version
Home page
Updated on February 10, 2013

---------------------------------------------------------------------

・ プロフィール

符号 256P/2003 HT15
発見日 2003年4月26日
発見光度 18.3等
発見者 Lincoln Laboratory Near-Earth Asteroid Research project

・ 軌道要素

Epoch 2003 May 1.0 TT = JDT 2452760.5
T 2003 Apr. 17.74527 TT                                 MPC
q   2.6715043            (2000.0)            P               Q
n   0.09973394     Peri.  124.05670     -0.80866500     +0.36762723
a   4.6051177      Node    81.47217     -0.56133353     -0.71574635
e   0.4198836      Incl.   27.67042     +0.17597042     -0.59376542
P   9.88
From 48 observations 2003 Jan. 27-2012 Jan. 27, mean residual 0".65.

・ 星図

・ 光度変化

        m1 = 12.8 + 5 logΔ + 10.0 log r

---------------------------------------------------------------------

軌道要素はM.P.E.C. 2012-B95に掲載されたものです。
星図は StellaNavigator Ver.2.0 for Windows (アストロアーツ 編著 / アスキー出版局刊) で作成したものです。
光度グラフはComet for Windowsで作成したものです。

---------------------------------------------------------------------

Copyright(C) Seiichi Yoshida (comet@aerith.net). All rights reserved.